TimeCDT,TemperatureF,Dew PointF,Humidity,Sea Level PressureIn,VisibilityMPH,Wind Direction,Wind SpeedMPH,Gust SpeedMPH,PrecipitationIn,Events,Conditions,WindDirDegrees,DateUTC
12:15 AM,50.0,35.6,58,30.00,10.0,SE,10.4,-,N/A,,Clear,140,2013-04-21 05:15:00
12:35 AM,48.2,35.6,62,30.01,10.0,SSE,11.5,-,N/A,,Clear,150,2013-04-21 05:35:00
12:55 AM,48.2,35.6,62,30.01,10.0,SSE,12.7,-,N/A,,Clear,150,2013-04-21 05:55:00
1:15 AM,48.2,35.6,62,30.01,10.0,South,11.5,-,N/A,,Clear,170,2013-04-21 06:15:00
1:35 AM,48.2,33.8,58,30.01,10.0,South,10.4,-,N/A,,Clear,170,2013-04-21 06:35:00
1:55 AM,46.4,33.8,62,30.02,10.0,South,10.4,-,N/A,,Clear,170,2013-04-21 06:55:00
2:15 AM,44.6,33.8,66,30.02,8.0,SSE,9.2,-,N/A,,Clear,160,2013-04-21 07:15:00
2:35 AM,42.8,33.8,70,30.01,10.0,SSE,8.1,-,N/A,,Clear,150,2013-04-21 07:35:00
2:55 AM,42.8,32.0,66,30.01,10.0,SSE,8.1,-,N/A,,Clear,160,2013-04-21 07:55:00
3:15 AM,41.0,32.0,70,30.01,10.0,SSE,6.9,-,N/A,,Clear,160,2013-04-21 08:15:00
3:35 AM,41.0,32.0,70,30.01,10.0,SSE,6.9,-,N/A,,Clear,160,2013-04-21 08:35:00
3:55 AM,39.2,32.0,75,30.01,10.0,SSE,6.9,-,N/A,,Clear,160,2013-04-21 08:55:00
4:15 AM,39.2,30.2,70,30.01,10.0,South,4.6,-,N/A,,Clear,170,2013-04-21 09:15:00
4:35 AM,39.2,32.0,75,30.01,10.0,South,5.8,-,N/A,,Clear,170,2013-04-21 09:35:00
4:55 AM,39.2,30.2,70,30.01,10.0,South,4.6,-,N/A,,Clear,170,2013-04-21 09:55:00
5:15 AM,41.0,32.0,70,30.01,10.0,South,6.9,-,N/A,,Clear,170,2013-04-21 10:15:00
5:35 AM,41.0,32.0,70,30.01,10.0,SSE,8.1,-,N/A,,Clear,160,2013-04-21 10:35:00
5:55 AM,39.2,32.0,75,30.02,10.0,South,5.8,-,N/A,,Clear,180,2013-04-21 10:55:00
6:15 AM,39.2,30.2,70,30.02,10.0,South,6.9,-,N/A,,Clear,180,2013-04-21 11:15:00
6:35 AM,39.2,32.0,75,30.03,10.0,South,8.1,-,N/A,,Clear,180,2013-04-21 11:35:00
6:55 AM,39.2,32.0,75,30.04,10.0,South,6.9,-,N/A,,Clear,180,2013-04-21 11:55:00
7:15 AM,39.2,32.0,75,30.04,10.0,South,4.6,-,N/A,,Clear,180,2013-04-21 12:15:00
7:35 AM,41.0,33.8,76,30.05,10.0,South,5.8,-,N/A,,Clear,180,2013-04-21 12:35:00
7:55 AM,42.8,35.6,76,30.06,10.0,South,8.1,-,N/A,,Clear,180,2013-04-21 12:55:00
8:15 AM,46.4,35.6,66,30.06,10.0,South,9.2,-,N/A,,Clear,190,2013-04-21 13:15:00
8:35 AM,48.2,35.6,62,30.07,10.0,South,13.8,19.6,N/A,,Clear,180,2013-04-21 13:35:00
8:55 AM,51.8,35.6,54,30.07,10.0,South,13.8,-,N/A,,Clear,190,2013-04-21 13:55:00
9:15 AM,53.6,35.6,51,30.07,10.0,SSW,16.1,-,N/A,,Clear,200,2013-04-21 14:15:00
9:35 AM,55.4,35.6,47,30.07,10.0,South,19.6,23.0,N/A,,Clear,190,2013-04-21 14:35:00
9:55 AM,55.4,35.6,47,30.07,10.0,SSW,18.4,21.9,N/A,,Clear,200,2013-04-21 14:55:00
10:15 AM,57.2,35.6,44,30.07,10.0,SSW,18.4,24.2,N/A,,Clear,200,2013-04-21 15:15:00
10:35 AM,59.0,35.6,42,30.07,10.0,SSW,18.4,-,N/A,,Clear,200,2013-04-21 15:35:00
10:55 AM,60.8,35.6,39,30.06,10.0,SSW,16.1,23.0,N/A,,Clear,200,2013-04-21 15:55:00
11:15 AM,60.8,35.6,39,30.06,10.0,SSW,13.8,23.0,N/A,,Clear,200,2013-04-21 16:15:00
11:35 AM,62.6,35.6,37,30.07,10.0,SW,15.0,19.6,N/A,,Clear,220,2013-04-21 16:35:00
11:55 AM,62.6,37.4,39,30.06,10.0,SW,16.1,23.0,N/A,,Clear,230,2013-04-21 16:55:00
12:15 PM,62.6,35.6,37,30.05,10.0,SSW,16.1,20.7,N/A,,Clear,200,2013-04-21 17:15:00
12:35 PM,64.4,37.4,37,30.05,10.0,SSW,11.5,-,N/A,,Clear,210,2013-04-21 17:35:00
12:55 PM,64.4,35.6,34,30.05,10.0,SW,12.7,19.6,N/A,,Clear,230,2013-04-21 17:55:00
1:15 PM,66.2,37.4,35,30.03,10.0,South,10.4,-,N/A,,Clear,190,2013-04-21 18:15:00
1:35 PM,66.2,35.6,32,30.03,10.0,SSW,8.1,-,N/A,,Clear,200,2013-04-21 18:35:00
1:55 PM,68.0,37.4,33,30.02,10.0,SSW,15.0,19.6,N/A,,Clear,210,2013-04-21 18:55:00
2:15 PM,69.8,37.4,31,30.01,10.0,SSW,11.5,18.4,N/A,,Clear,210,2013-04-21 19:15:00
2:35 PM,69.8,37.4,31,30.01,10.0,SW,11.5,-,N/A,,Clear,220,2013-04-21 19:35:00
2:55 PM,69.8,37.4,31,30.01,10.0,SSW,11.5,21.9,N/A,,Clear,200,2013-04-21 19:55:00
3:15 PM,69.8,37.4,31,30.00,10.0,South,10.4,18.4,N/A,,Clear,180,2013-04-21 20:15:00
3:35 PM,69.8,37.4,31,29.99,10.0,South,12.7,19.6,N/A,,Clear,190,2013-04-21 20:35:00
3:55 PM,69.8,35.6,28,29.98,10.0,South,9.2,-,N/A,,Clear,190,2013-04-21 20:55:00
4:15 PM,69.8,35.6,28,29.99,10.0,South,6.9,16.1,N/A,,Clear,170,2013-04-21 21:15:00
4:35 PM,71.6,37.4,29,29.98,10.0,SW,9.2,-,N/A,,Clear,220,2013-04-21 21:35:00
4:55 PM,71.6,35.6,27,29.97,10.0,South,11.5,16.1,N/A,,Clear,190,2013-04-21 21:55:00
5:15 PM,71.6,35.6,27,29.97,10.0,South,12.7,16.1,N/A,,Clear,190,2013-04-21 22:15:00
5:35 PM,71.6,35.6,27,29.97,10.0,South,12.7,16.1,N/A,,Partly Cloudy,190,2013-04-21 22:35:00
5:55 PM,69.8,37.4,31,29.97,10.0,South,10.4,17.3,N/A,,Partly Cloudy,180,2013-04-21 22:55:00
6:15 PM,69.8,35.6,28,29.97,10.0,SSW,12.7,-,N/A,,Partly Cloudy,200,2013-04-21 23:15:00
6:35 PM,69.8,35.6,28,29.97,10.0,South,11.5,-,N/A,,Clear,180,2013-04-21 23:35:00
6:55 PM,69.8,35.6,28,29.97,10.0,South,11.5,-,N/A,,Clear,180,2013-04-21 23:55:00
7:15 PM,69.8,37.4,31,29.97,10.0,South,12.7,-,N/A,,Clear,170,2013-04-22 00:15:00
7:35 PM,66.2,39.2,37,29.97,10.0,South,10.4,-,N/A,,Partly Cloudy,170,2013-04-22 00:35:00
7:55 PM,64.4,39.2,40,29.98,10.0,South,10.4,-,N/A,,Partly Cloudy,170,2013-04-22 00:55:00
8:15 PM,60.8,39.2,45,29.98,10.0,SSE,9.2,-,N/A,,Clear,160,2013-04-22 01:15:00
8:35 PM,59.0,39.2,48,29.98,10.0,SSE,10.4,-,N/A,,Clear,150,2013-04-22 01:35:00
8:55 PM,57.2,39.2,51,29.99,10.0,SE,10.4,-,N/A,,Partly Cloudy,140,2013-04-22 01:55:00
9:15 PM,57.2,41.0,55,29.99,10.0,SE,10.4,-,N/A,,Partly Cloudy,140,2013-04-22 02:15:00
9:35 PM,55.4,42.8,63,30.00,10.0,SE,12.7,-,N/A,,Clear,140,2013-04-22 02:35:00
9:55 PM,55.4,44.6,67,30.00,10.0,SSE,12.7,-,N/A,,Clear,150,2013-04-22 02:55:00
10:15 PM,55.4,44.6,67,30.00,10.0,SSE,16.1,20.7,N/A,,Clear,160,2013-04-22 03:15:00
10:35 PM,55.4,44.6,67,30.01,10.0,SSE,16.1,-,N/A,,Clear,160,2013-04-22 03:35:00
10:55 PM,55.4,44.6,67,30.00,10.0,SSE,13.8,19.6,N/A,,Clear,160,2013-04-22 03:55:00
11:15 PM,55.4,44.6,67,30.00,10.0,South,16.1,20.7,N/A,,Clear,170,2013-04-22 04:15:00
11:35 PM,55.4,44.6,67,30.01,10.0,South,13.8,-,N/A,,Clear,170,2013-04-22 04:35:00
11:55 PM,53.6,44.6,72,30.01,10.0,South,12.7,-,N/A,,Clear,170,2013-04-22 04:55:00